ROOKIE3 EFRO-EFRO

Flight info

Callsign ROOKIE3
Flight time 0h 47m
Altitude 12000
Route JERJO DCT 670034N0264029E DCT JERJO
Aircraft F35/M-SDE3RV/LB1

Departure

Time 2026-05-04 15:23
Airport Rovaniemi Airport (EFRO)

Arrival

Time 2026-05-04 16:11
Airport Rovaniemi Airport (EFRO)
Time Latitude Longitude Altitude Speed Heading
2026-05-04 15:08 66.57073 25.83162 655 ft 0 kts 262°
2026-05-04 15:12 66.57073 25.83163 655 ft 0 kts 262°
2026-05-04 15:16 66.57073 25.83164 655 ft 0 kts 262°
2026-05-04 15:19 66.57073 25.83165 655 ft 0 kts 262°
2026-05-04 15:22 66.57073 25.83164 655 ft 1 kts 262°
2026-05-04 15:22 66.57011 25.83144 657 ft 13 kts 172°
2026-05-04 15:22 66.56804 25.83337 641 ft 21 kts 172°
2026-05-04 15:23 66.56650 25.83349 636 ft 22 kts 202°
2026-05-04 15:23 66.56626 25.83309 636 ft 0 kts 216°
2026-05-04 15:23 66.56377 25.82836 638 ft 158 kts 217°
2026-05-04 15:23 66.55254 25.80651 1458 ft 204 kts 212°
2026-05-04 15:24 66.55458 25.84094 1276 ft 221 kts 40°
2026-05-04 15:24 66.57575 25.87298 929 ft 159 kts 316°
2026-05-04 15:25 66.57411 25.84806 654 ft 160 kts 217°
2026-05-04 15:25 66.56528 25.83158 754 ft 214 kts 217°
2026-05-04 15:25 66.55294 25.80766 1313 ft 175 kts 217°
2026-05-04 15:26 66.55552 25.83908 1157 ft 217 kts 44°
2026-05-04 15:26 66.56543 25.86278 1040 ft 176 kts 45°
2026-05-04 15:26 66.57486 25.84930 683 ft 184 kts 211°
2026-05-04 15:27 66.56270 25.82647 1177 ft 289 kts 214°
2026-05-04 15:27 66.54051 25.77019 2924 ft 155 kts 304°
2026-05-04 15:28 66.56846 25.77030 2731 ft 300 kts
2026-05-04 15:28 66.58702 25.76439 4689 ft 277 kts 340°
2026-05-04 15:28 66.61353 25.72755 7950 ft 245 kts 323°
2026-05-04 15:29 66.62817 25.70593 9837 ft 246 kts 326°
2026-05-04 15:30 66.67420 25.66637 14687 ft 276 kts 342°
2026-05-04 15:30 66.72564 25.73506 18950 ft 344 kts 61°
2026-05-04 15:31 66.75199 25.84831 17846 ft 363 kts 58°
2026-05-04 15:31 66.76530 25.90097 17037 ft 350 kts 57°
2026-05-04 15:32 66.80875 26.04313 14955 ft 333 kts 51°
2026-05-04 15:32 66.83739 26.13377 13966 ft 325 kts 52°
2026-05-04 15:33 66.86699 26.22526 13398 ft 356 kts 53°
2026-05-04 15:34 66.91339 26.37067 13824 ft 354 kts 52°
2026-05-04 15:34 66.92895 26.41999 13740 ft 356 kts 53°
2026-05-04 15:34 66.96041 26.51475 12542 ft 348 kts 36°
2026-05-04 15:35 67.00732 26.55204 9319 ft 351 kts 12°
2026-05-04 15:35 67.02819 26.57462 8524 ft 326 kts 31°
2026-05-04 15:35 67.04958 26.59148 9415 ft 328 kts
2026-05-04 15:36 67.09022 26.61763 10212 ft 370 kts 32°
2026-05-04 15:36 67.10921 26.65080 10403 ft 260 kts 36°
2026-05-04 15:36 67.12777 26.68628 10403 ft 344 kts 37°
2026-05-04 15:37 67.14022 26.73173 9184 ft 270 kts 65°
2026-05-04 15:37 67.14912 26.77691 11102 ft 347 kts 70°
2026-05-04 15:37 67.14596 26.83184 11314 ft 326 kts 135°
2026-05-04 15:37 67.12894 26.86795 10933 ft 316 kts 147°
2026-05-04 15:38 67.10929 26.88988 10409 ft 307 kts 167°
2026-05-04 15:38 67.08878 26.90260 10215 ft 305 kts 171°
2026-05-04 15:38 67.06815 26.91317 10038 ft 301 kts 172°
2026-05-04 15:38 67.04747 26.92288 10018 ft 301 kts 174°
2026-05-04 15:39 67.02676 26.93135 10183 ft 301 kts 174°
2026-05-04 15:39 67.00597 26.93796 10474 ft 302 kts 178°
2026-05-04 15:39 66.99651 26.93988 10623 ft 291 kts 179°
2026-05-04 15:40 66.97917 26.94270 10888 ft 303 kts 180°
2026-05-04 15:40 66.97400 26.94324 10797 ft 308 kts 180°
2026-05-04 15:40 66.95311 26.94600 10178 ft 278 kts 175°
2026-05-04 15:40 66.93142 26.95300 9907 ft 313 kts 176°
2026-05-04 15:41 66.91134 26.96200 9990 ft 274 kts 165°
2026-05-04 15:41 66.89542 26.98283 10222 ft 243 kts 149°
2026-05-04 15:41 66.88340 26.99877 10314 ft 158 kts 208°
2026-05-04 15:41 66.87988 26.96922 9587 ft 250 kts 283°
2026-05-04 15:42 66.88863 26.92357 9459 ft 301 kts 295°
2026-05-04 15:42 66.90068 26.89493 10966 ft 204 kts 51°
2026-05-04 15:42 66.89684 26.92564 11014 ft 234 kts 145°
2026-05-04 15:42 66.88211 26.94200 10579 ft 234 kts 171°
2026-05-04 15:43 66.86910 26.96335 10490 ft 218 kts 128°
2026-05-04 15:43 66.86522 26.99657 10567 ft 173 kts 114°
2026-05-04 15:43 66.85791 27.02236 10660 ft 211 kts 149°
2026-05-04 15:43 66.84652 27.04727 11489 ft 216 kts 130°
2026-05-04 15:44 66.84154 27.08406 12297 ft 226 kts 98°
2026-05-04 15:44 66.84502 27.12211 13020 ft 239 kts 64°
2026-05-04 15:44 66.85573 27.14959 13482 ft 225 kts 24°
2026-05-04 15:44 66.87278 27.15786 13522 ft 258 kts 347°
2026-05-04 15:45 66.88579 27.13908 13173 ft 201 kts 293°
2026-05-04 15:45 66.89442 27.11046 12114 ft 186 kts 283°
2026-05-04 15:45 66.90451 27.09723 11576 ft 225 kts 19°
2026-05-04 15:45 66.92165 27.09487 13045 ft 292 kts 338°
2026-05-04 15:46 66.94324 27.06910 13691 ft 292 kts 356°
2026-05-04 15:46 66.95599 27.05534 12943 ft 225 kts 295°
2026-05-04 15:46 66.96570 27.02316 13847 ft 223 kts 344°
2026-05-04 15:46 66.97981 27.02310 13793 ft 204 kts 321°
2026-05-04 15:47 66.99372 27.00220 14550 ft 225 kts 323°
2026-05-04 15:47 67.00330 26.97853 14597 ft 161 kts 290°
2026-05-04 15:47 67.00716 26.95129 14574 ft 163 kts 268°
2026-05-04 15:47 67.00651 26.92337 14591 ft 150 kts 248°
2026-05-04 15:48 67.00162 26.89970 14317 ft 187 kts 240°
2026-05-04 15:48 66.99186 26.88346 14661 ft 204 kts 153°
2026-05-04 15:48 66.98969 26.94038 12025 ft 224 kts 327°
2026-05-04 15:49 66.98612 26.91943 10948 ft 206 kts 210°
2026-05-04 15:49 66.97561 26.89430 12910 ft 177 kts 216°
2026-05-04 15:49 66.96355 26.89473 13450 ft 206 kts 148°
2026-05-04 15:49 66.95428 26.93126 12904 ft 267 kts 111°
2026-05-04 15:50 66.95226 26.97456 11584 ft 239 kts 83°
2026-05-04 15:50 66.96214 27.00768 11083 ft 234 kts 13°
2026-05-04 15:50 66.97749 27.00913 11299 ft 212 kts 352°
2026-05-04 15:50 66.99323 27.00030 11546 ft 250 kts 329°
2026-05-04 15:51 67.00444 26.97747 11653 ft 162 kts 310°
2026-05-04 15:51 67.01223 26.96361 11382 ft 124 kts 323°
2026-05-04 15:51 67.02079 26.95031 10179 ft 170 kts 313°
2026-05-04 15:51 67.02943 26.93199 11401 ft 196 kts 311°
2026-05-04 15:52 67.03930 26.90815 11520 ft 139 kts 262°
2026-05-04 15:52 67.02929 26.89796 10620 ft 244 kts 107°
2026-05-04 15:52 67.04070 26.90531 11061 ft 250 kts 322°
2026-05-04 15:52 67.05609 26.88030 11861 ft 257 kts 322°
2026-05-04 15:53 67.07183 26.85456 12109 ft 286 kts 322°
2026-05-04 15:53 67.08679 26.82577 11991 ft 252 kts 318°
2026-05-04 15:53 67.09998 26.80166 12345 ft 222 kts 318°
2026-05-04 15:53 67.11313 26.77806 12237 ft 263 kts 318°
2026-05-04 15:54 67.12490 26.73936 11462 ft 276 kts 288°
2026-05-04 15:54 67.12773 26.69142 11065 ft 270 kts 261°
2026-05-04 15:54 67.12090 26.65248 11143 ft 222 kts 231°
2026-05-04 15:54 67.10719 26.62991 11548 ft 289 kts 188°
2026-05-04 15:55 67.08682 26.65648 12253 ft 388 kts 131°
2026-05-04 15:55 67.07617 26.71520 12175 ft 306 kts 124°
2026-05-04 15:55 67.06224 26.75599 12034 ft 385 kts 137°
2026-05-04 15:55 67.04688 26.80146 12554 ft 248 kts 134°
2026-05-04 15:56 67.03688 26.83370 12542 ft 226 kts 135°
2026-05-04 15:56 67.02594 26.86810 12589 ft 252 kts 134°
2026-05-04 15:56 67.01598 26.90040 12589 ft 228 kts 134°
2026-05-04 15:56 67.00532 26.93206 12636 ft 258 kts 137°
2026-05-04 15:57 66.99448 26.96563 13014 ft 191 kts 134°
2026-05-04 15:57 66.98428 26.98837 12554 ft 236 kts 161°
2026-05-04 15:57 66.96688 26.98934 12527 ft 220 kts 207°
2026-05-04 15:57 66.95378 26.96472 12777 ft 279 kts 200°
2026-05-04 15:58 66.93420 26.92989 10618 ft 376 kts 223°
2026-05-04 15:58 66.91941 26.87643 10977 ft 221 kts 240°
2026-05-04 15:58 66.91680 26.86239 13926 ft 123 kts 234°
2026-05-04 15:58 66.91163 26.83612 13527 ft 184 kts 243°
2026-05-04 15:59 66.90539 26.80677 12985 ft 199 kts 222°
2026-05-04 15:59 66.89532 26.78171 12367 ft 183 kts 209°
2026-05-04 15:59 66.88402 26.77892 11781 ft 206 kts 212°
2026-05-04 15:59 66.87128 26.75105 11327 ft 256 kts 222°
2026-05-04 16:00 66.85943 26.71747 11205 ft 223 kts 240°
2026-05-04 16:00 66.85490 26.68903 11251 ft 134 kts 249°
2026-05-04 16:00 66.84842 26.65986 9896 ft 268 kts 232°
2026-05-04 16:00 66.83938 26.62505 9571 ft 201 kts 235°
2026-05-04 16:01 66.83157 26.59451 9612 ft 206 kts 234°
2026-05-04 16:01 66.82352 26.56298 9596 ft 207 kts 236°
2026-05-04 16:01 66.81787 26.53000 9562 ft 214 kts 249°
2026-05-04 16:01 66.81151 26.49873 9699 ft 167 kts 236°
2026-05-04 16:02 66.80276 26.47225 9498 ft 231 kts 230°
2026-05-04 16:02 66.79491 26.44793 9090 ft 179 kts 230°
2026-05-04 16:02 66.80175 26.41685 8356 ft 318 kts 96°
2026-05-04 16:03 66.79405 26.44768 8294 ft 135 kts 242°
2026-05-04 16:03 66.78696 26.41738 7652 ft 275 kts 241°
2026-05-04 16:03 66.77807 26.37307 8076 ft 261 kts 242°
2026-05-04 16:03 66.77018 26.33455 8067 ft 234 kts 238°
2026-05-04 16:04 66.76157 26.30045 7841 ft 232 kts 235°
2026-05-04 16:04 66.74418 26.22920 6727 ft 237 kts 237°
2026-05-04 16:04 66.73386 26.18628 6296 ft 301 kts 238°
2026-05-04 16:05 66.72443 26.14589 5630 ft 230 kts 237°
2026-05-04 16:05 66.71438 26.11402 4884 ft 229 kts 223°
2026-05-04 16:05 66.69254 26.07044 4104 ft 183 kts 216°
2026-05-04 16:06 66.68009 26.04644 3570 ft 252 kts 215°
2026-05-04 16:06 66.64674 25.98306 2553 ft 204 kts 216°
2026-05-04 16:07 66.63135 25.95522 2294 ft 236 kts 213°
2026-05-04 16:07 66.59744 25.89186 1187 ft 120 kts 213°
2026-05-04 16:08 66.59104 25.88004 985 ft 160 kts 213°
2026-05-04 16:08 66.55637 25.81005 2185 ft 231 kts 218°
2026-05-04 16:09 66.55050 25.83105 1702 ft 200 kts 43°
2026-05-04 16:09 66.56906 25.86853 1071 ft 170 kts 40°
2026-05-04 16:10 66.57576 25.85131 736 ft 163 kts 218°
2026-05-04 16:11 66.56314 25.82712 637 ft 40 kts 223°
2026-05-04 16:11 66.56348 25.82374 639 ft 20 kts 308°
2026-05-04 16:12 66.56700 25.82721 652 ft 8 kts
2026-05-04 16:12 66.56726 25.82666 657 ft 0 kts 307°